Hourly Weather Bolshie Letcy

Today, 20 June, Sunday

Time Temperature Precipitation Wind Pressure Humidity
00:00 +19°C° 0 mm 2 mps 752 mmHg 92%
01:00 +19°C° 0 mm 2 mps 752 mmHg 93%
02:00 +18°C° 0 mm 2 mps 752 mmHg 94%
03:00 +19°C° 0 mm 2 mps 752 mmHg 93%
04:00 +19°C° 0 mm 2 mps 752 mmHg 92%
05:00 +20°C° 0 mm 2 mps 752 mmHg 91%
06:00 +21°C° 0 mm 2 mps 752 mmHg 85%
07:00 +24°C° 0 mm 2 mps 752 mmHg 79%
08:00 +26°C° 0 mm 2 mps 752 mmHg 73%
09:00 +27°C° 0 mm 2 mps 752 mmHg 68%
10:00 +28°C° 0 mm 2 mps 752 mmHg 63%
11:00 +30°C° 0 mm 2 mps 752 mmHg 59%
12:00 +30°C° 0 mm 2 mps 751 mmHg 56%
13:00 +31°C° 0 mm 2 mps 751 mmHg 54%
14:00 +31°C° 0 mm 2 mps 751 mmHg 52%
15:00 +31°C° 0.1 mm 3 mps 751 mmHg 56%
16:00 +30°C° 0.1 mm 3 mps 750 mmHg 59%
17:00 +30°C° 0.1 mm 3 mps 750 mmHg 63%
18:00 +28°C° 0.1 mm 3 mps 750 mmHg 70%
19:00 +26°C° 0.1 mm 2 mps 750 mmHg 77%
20:00 +25°C° 0.1 mm 2 mps 750 mmHg 84%
21:00 +24°C° 0 mm 2 mps 750 mmHg 87%
22:00 +23°C° 0 mm 2 mps 750 mmHg 90%
23:00 +21°C° 0 mm 2 mps 750 mmHg 92%

Tomorrow, 21 June, Monday

Time Temperature Precipitation Wind Pressure Humidity
00:00 +21°C° 0 mm 2 mps 750 mmHg 92%
01:00 +20°C° 0 mm 2 mps 750 mmHg 93%
02:00 +20°C° 0 mm 2 mps 750 mmHg 93%
03:00 +20°C° 0 mm 2 mps 750 mmHg 91%
04:00 +20°C° 0 mm 2 mps 750 mmHg 90%
05:00 +20°C° 0 mm 2 mps 750 mmHg 88%
06:00 +21°C° 0 mm 2 mps 750 mmHg 82%
07:00 +24°C° 0 mm 3 mps 750 mmHg 75%
08:00 +25°C° 0 mm 3 mps 750 mmHg 69%
09:00 +26°C° 0 mm 3 mps 750 mmHg 63%
10:00 +28°C° 0 mm 4 mps 750 mmHg 57%
11:00 +29°C° 0 mm 4 mps 750 mmHg 52%
12:00 +29°C° 0 mm 4 mps 750 mmHg 50%
13:00 +30°C° 0 mm 4 mps 749 mmHg 49%
14:00 +30°C° 0 mm 4 mps 749 mmHg 48%
15:00 +30°C° 0 mm 4 mps 749 mmHg 51%
16:00 +29°C° 0 mm 4 mps 749 mmHg 55%
17:00 +29°C° 0 mm 3 mps 749 mmHg 59%
18:00 +27°C° 0 mm 3 mps 749 mmHg 66%
19:00 +26°C° 0 mm 3 mps 748 mmHg 73%
20:00 +24°C° 0 mm 3 mps 748 mmHg 80%
21:00 +22°C° 0 mm 3 mps 748 mmHg 83%
22:00 +21°C° 0 mm 3 mps 748 mmHg 85%
23:00 +20°C° 0 mm 3 mps 748 mmHg 88%

Day after tomorrow, 22 June, Tuesday

Time Temperature Precipitation Wind Pressure Humidity
00:00 +20°C° 0 mm 3 mps 748 mmHg 90%
01:00 +20°C° 0 mm 3 mps 748 mmHg 92%
02:00 +20°C° 0 mm 2 mps 748 mmHg 94%
03:00 +20°C° 0 mm 3 mps 748 mmHg 93%
04:00 +20°C° 0 mm 3 mps 748 mmHg 93%
05:00 +20°C° 0 mm 3 mps 748 mmHg 93%
06:00 +22°C° 0 mm 3 mps 748 mmHg 86%
07:00 +23°C° 0 mm 4 mps 748 mmHg 80%
08:00 +26°C° 0 mm 4 mps 748 mmHg 73%
09:00 +27°C° 0 mm 5 mps 748 mmHg 68%
10:00 +28°C° 0 mm 5 mps 748 mmHg 62%
11:00 +29°C° 0 mm 5 mps 748 mmHg 57%
12:00 +30°C° 0 mm 5 mps 748 mmHg 56%
13:00 +32°C° 0 mm 5 mps 748 mmHg 54%
14:00 +32°C° 0 mm 5 mps 748 mmHg 53%
15:00 +32°C° 0 mm 5 mps 748 mmHg 55%
16:00 +32°C° 0 mm 4 mps 748 mmHg 57%
17:00 +32°C° 0 mm 4 mps 748 mmHg 60%
18:00 +29°C° 0 mm 3 mps 748 mmHg 67%
19:00 +27°C° 0 mm 3 mps 748 mmHg 74%
20:00 +26°C° 0 mm 3 mps 748 mmHg 81%
21:00 +25°C° 0 mm 3 mps 748 mmHg 83%
22:00 +24°C° 0 mm 3 mps 748 mmHg 85%
23:00 +22°C° 0 mm 3 mps 749 mmHg 87%

23 June, Wednesday

Time Temperature Precipitation Wind Pressure Humidity
00:00 +21°C° 0 mm 3 mps 749 mmHg 88%
01:00 +20°C° 0 mm 3 mps 749 mmHg 90%
02:00 +19°C° 0 mm 2 mps 749 mmHg 91%
03:00 +19°C° 0 mm 2 mps 749 mmHg 90%
04:00 +20°C° 0 mm 2 mps 749 mmHg 90%
05:00 +20°C° 0 mm 2 mps 749 mmHg 89%
06:00 +22°C° 0 mm 3 mps 749 mmHg 83%
07:00 +25°C° 0 mm 3 mps 750 mmHg 77%
08:00 +27°C° 0 mm 3 mps 750 mmHg 71%
09:00 +28°C° 0 mm 4 mps 750 mmHg 66%
10:00 +30°C° 0 mm 4 mps 750 mmHg 60%
11:00 +32°C° 0 mm 4 mps 750 mmHg 55%
12:00 +33°C° 0 mm 4 mps 750 mmHg 54%
13:00 +33°C° 0 mm 4 mps 750 mmHg 52%
14:00 +34°C° 0 mm 4 mps 749 mmHg 51%
15:00 +34°C° 0 mm 4 mps 749 mmHg 53%
16:00 +33°C° 0 mm 4 mps 749 mmHg 56%
17:00 +33°C° 0 mm 4 mps 749 mmHg 58%
18:00 +30°C° 0 mm 3 mps 749 mmHg 65%
19:00 +29°C° 0 mm 3 mps 749 mmHg 72%
20:00 +27°C° 0 mm 2 mps 749 mmHg 79%
21:00 +26°C° 0 mm 2 mps 749 mmHg 81%
22:00 +25°C° 0 mm 2 mps 750 mmHg 82%
23:00 +24°C° 0 mm 3 mps 750 mmHg 84%

24 June, Thursday

Time Temperature Precipitation Wind Pressure Humidity
00:00 +23°C° 0 mm 2 mps 750 mmHg 86%
01:00 +23°C° 0 mm 2 mps 750 mmHg 88%
02:00 +21°C° 0 mm 2 mps 750 mmHg 91%
03:00 +21°C° 0 mm 2 mps 750 mmHg 91%
04:00 +23°C° 0 mm 2 mps 750 mmHg 91%
05:00 +23°C° 0 mm 2 mps 750 mmHg 91%
06:00 +25°C° 0 mm 3 mps 750 mmHg 84%
07:00 +26°C° 0 mm 3 mps 750 mmHg 78%
08:00 +28°C° 0 mm 3 mps 750 mmHg 71%
09:00 +29°C° 0 mm 3 mps 750 mmHg 65%
10:00 +32°C° 0 mm 4 mps 750 mmHg 59%
11:00 +33°C° 0 mm 4 mps 750 mmHg 53%
12:00 +33°C° 0 mm 4 mps 750 mmHg 51%
13:00 +34°C° 0 mm 4 mps 749 mmHg 49%
14:00 +34°C° 0 mm 4 mps 749 mmHg 47%
15:00 +34°C° 0 mm 4 mps 749 mmHg 50%
16:00 +33°C° 0 mm 4 mps 749 mmHg 53%
17:00 +33°C° 0 mm 3 mps 749 mmHg 57%
18:00 +30°C° 0 mm 3 mps 748 mmHg 64%
19:00 +29°C° 0 mm 3 mps 748 mmHg 71%
20:00 +27°C° 0 mm 2 mps 748 mmHg 79%
21:00 +26°C° 0 mm 2 mps 748 mmHg 82%
22:00 +25°C° 0 mm 2 mps 748 mmHg 84%
23:00 +24°C° 0 mm 2 mps 748 mmHg 87%

25 June, Friday

Time Temperature Precipitation Wind Pressure Humidity
00:00 +23°C° 0.4 mm 2 mps 748 mmHg 89%
01:00 +21°C° 0.4 mm 2 mps 748 mmHg 90%
02:00 +21°C° 0.4 mm 1 mps 747 mmHg 92%
03:00 +21°C° 0.1 mm 1 mps 747 mmHg 91%
04:00 +22°C° 0.1 mm 1 mps 747 mmHg 91%
05:00 +22°C° 0.1 mm 1 mps 747 mmHg 90%
06:00 +23°C° 0.2 mm 2 mps 747 mmHg 86%
07:00 +25°C° 0.2 mm 2 mps 747 mmHg 82%
08:00 +26°C° 0.2 mm 2 mps 747 mmHg 79%
09:00 +27°C° 0 mm 2 mps 747 mmHg 73%
10:00 +28°C° 0 mm 2 mps 747 mmHg 67%
11:00 +30°C° 0 mm 2 mps 747 mmHg 62%
12:00 +28°C° 1.2 mm 3 mps 747 mmHg 70%
13:00 +26°C° 1.2 mm 3 mps 747 mmHg 78%
14:00 +23°C° 1.2 mm 4 mps 747 mmHg 87%
15:00 +22°C° 1 mm 4 mps 747 mmHg 89%
16:00 +21°C° 1 mm 3 mps 747 mmHg 92%
17:00 +19°C° 1 mm 3 mps 747 mmHg 94%
18:00 +20°C° 0.1 mm 3 mps 747 mmHg 94%
19:00 +20°C° 0.1 mm 2 mps 746 mmHg 95%
20:00 +21°C° 0.1 mm 1 mps 746 mmHg 95%
21:00 +20°C° 0 mm 1 mps 746 mmHg 95%
22:00 +20°C° 0 mm 1 mps 746 mmHg 96%
23:00 +19°C° 0 mm 1 mps 746 mmHg 96%
Show more